This is the latest recevied weather packets stored in our database for station/object T10BNorth. If no packets are shown the sender has not sent any weather packets the latest 10 day(s).
| Time | Temp. | Humidity | Pressure | Rain* | Wind** | Luminosity | Snow |
|---|---|---|---|---|---|---|---|
| 1777654119 | 8.89° C | 59% | 1008 hPa | 0 mm | - | 714 W/m² | - |
| 1777654059 | 8.89° C | 61% | 1007.9 hPa | 0 mm | - | 715 W/m² | - |
| 1777653995 | 8.89° C | 60% | 1008 hPa | 0 mm | - | 715 W/m² | - |
| 1777653922 | 8.89° C | 58% | 1007.9 hPa | 0 mm | - | 717 W/m² | - |
| 1777653864 | 8.89° C | 61% | 1008 hPa | 0 mm | - | 719 W/m² | - |
| 1777653822 | 8.89° C | 62% | 1007.9 hPa | 0 mm | - | 719 W/m² | - |
| 1777653800 | 8.89° C | 63% | 1007.8 hPa | 0 mm | - | 728 W/m² | - |
| 1777653681 | 8.89° C | 64% | 1007.9 hPa | 0 mm | - | 740 W/m² | - |
| 1777653615 | 8.89° C | 64% | 1007.8 hPa | 0 mm | - | 744 W/m² | - |
| 1777653554 | 8.89° C | 63% | 1007.9 hPa | 0 mm | - | 759 W/m² | - |
| 1777653494 | 8.89° C | 62% | 1008 hPa | 0 mm | - | 777 W/m² | - |
| 1777653440 | 8.89° C | 61% | 1008 hPa | 0 mm | - | 796 W/m² | - |
| 1777653375 | 8.89° C | 63% | 1008 hPa | 0 mm | - | 798 W/m² | - |
| 1777653310 | 8.89° C | 62% | 1007.9 hPa | 0 mm | - | 809 W/m² | - |
| 1777653248 | 8.89° C | 61% | 1007.8 hPa | 0 mm | - | 821 W/m² | - |
| 1777653190 | 8.89° C | 61% | 1008.1 hPa | 0 mm | - | 837 W/m² | - |
| 1777653130 | 8.89° C | 62% | 1008 hPa | 0 mm | - | 860 W/m² | - |
| 1777653069 | 8.89° C | 66% | 1008 hPa | 0 mm | - | 868 W/m² | - |
| 1777652998 | 8.89° C | 63% | 1008 hPa | 0 mm | - | 877 W/m² | - |
| 1777652939 | 8.89° C | 62% | 1008 hPa | 0 mm | - | 893 W/m² | - |
| 1777652818 | 8.89° C | 63% | 1008 hPa | 0 mm | - | 911 W/m² | - |
| 1777652760 | 8.89° C | 64% | 1008 hPa | 0 mm | - | 912 W/m² | - |
| 1777652694 | 8.33° C | 68% | 1008.1 hPa | 0 mm | - | 923 W/m² | - |
| 1777652634 | 8.33° C | 67% | 1008 hPa | 0 mm | - | 930 W/m² | - |
| 1777652574 | 8.33° C | 65% | 1008.1 hPa | 0 mm | - | 940 W/m² | - |
* Rain latest hour (hover to see other rain measurements)
** Current wind speed in m/s (hover to see current wind gust speed)